Temp
36 37 35 38 37 35 36 36 37 37 37 38 40 43 44 44 44 37 36 35 34 34 35 34 34 34 34 34 35 34 35 34 33 34 34 33 33 32 33 35 36 36 37 38 38 39 40 40 41 41 42 43 43 44 44 44 44 44 45 45 46 47 47 47 47 47 47 48 48 48 49 49 50 50
36 36 35 37 36 35 35 36 36 36 36 36 37 39 39 42 44 44 41 40 36 36 35 36 34 32 32 33 33 34 34 32 33 33 33 32 32 32 33 34 34 36 36 37 37 39 39 40 40 41 41 42 42 43 43 43 43 44 44 45 45 46 47 47 47 47 47 48 48 48 48 48 49 49
35 35 34 35 36 34 34 34 34 35 35 35 36 36 36 35 39 40 42 40 35 36 34 34 34 33 32 33 33 32 33 32 33 33 32 32 31 31 32 32 33 34 35 36 37 38 39 40 41 41 40 41 41 42 42 42 42 42 43 44 45 45 45 45 46 46 47 47 48 48 48 48 48 49
34 34 34 34 35 33 34 34 33 34 34 35 34 35 34 35 35 37 39 42 35 33 34 34 32 32 33 32 32 32 32 31 30 32 32 32 30 32 33 31 32 33 35 36 37 38 39 39 39 40 40 40 40 41 41 41 41 42 43 44 44 44 44 44 44 45 45 45 46 46 47 48 48 48
34 34 34 33 34 33 33 33 33 33 33 33 34 34 34 34 34 35 37 38 34 30 32 32 32 32 32 31 32 31 31 31 32 31 32 32 31 32 33 33 32 33 34 36 37 38 38 39 39 39 39 39 40 40 40 40 41 41 43 43 43 43 44 44 44 44 44 45 45 45 46 46 47 48
33 34 33 32 32 32 32 33 32 33 32 32 33 32 33 33 33 34 36 37 36 30 28 29 31 30 31 29 32 29 29 30 31 30 31 32 32 32 33 33 33 32 34 35 37 37 38 38 39 39 39 39 39 39 40 40 40 41 41 41 41 41 42 42 43 43 43 44 45 45 45 45 46 47
33 33 33 32 31 31 31 31 32 32 31 32 32 31 32 32 33 32 34 35 31 32 29 29 28 29 29 29 30 29 29 30 30 29 30 30 31 32 32 32 33 32 34 35 36 37 37 37 38 38 38 38 39 39 40 40 40 40 40 40 40 40 40 41 41 42 42 43 44 44 44 45 45 46
32 32 32 31 30 30 29 30 30 30 31 31 31 31 31 31 31 31 32 32 34 32 29 27 28 28 27 28 29 29 29 29 29 30 30 31 30 31 32 32 32 33 34 35 35 36 36 36 37 37 37 38 38 39 39 39 39 39 39 39 39 39 39 39 40 40 41 42 43 44 44 44 44 44
32 32 32 31 30 29 29 29 29 29 28 29 30 29 30 30 30 29 30 30 30 29 28 26 26 27 27 27 28 28 27 28 29 30 29 30 30 31 32 32 32 32 33 34 34 34 35 35 36 36 37 37 38 38 38 38 38 38 38 37 37 38 38 39 39 40 40 41 41 42 43 44 44 44
33 32 32 31 30 29 29 28 28 28 27 28 28 28 28 28 28 27 27 28 27 27 27 26 24 26 25 26 27 28 28 27 28 29 30 31 31 30 30 32 32 32 32 32 32 33 34 34 35 35 35 36 37 37 37 37 37 37 36 36 36 37 38 38 39 40 40 41 41 41 42 43 44 44
33 34 34 32 30 29 30 28 27 27 27 25 26 27 26 26 26 26 26 26 25 25 24 24 25 25 26 26 25 29 29 28 28 27 27 28 30 30 30 29 32 33 32 33 33 33 34 33 33 33 34 34 35 35 36 36 36 35 34 35 36 36 37 38 39 39 40 40 40 40 40 41 42 44
34 34 34 32 30 30 31 30 28 27 26 25 25 26 25 25 25 24 23 23 23 23 23 23 23 25 25 26 27 28 28 26 26 28 26 25 27 29 30 31 29 32 32 31 32 32 32 32 32 32 32 32 33 34 34 34 33 33 34 34 36 37 37 38 38 38 38 39 39 39 40 40 41 42
33 33 34 33 31 31 31 31 29 28 28 25 23 23 24 22 22 21 21 21 21 21 22 22 24 24 24 25 25 25 25 25 25 29 29 26 28 29 28 30 32 31 30 31 30 29 30 29 29 30 30 31 31 32 32 32 32 32 34 35 35 36 37 37 37 38 38 39 39 39 39 40 40 40
33 32 33 32 30 30 30 30 30 30 30 28 25 23 22 21 20 20 19 20 20 20 20 20 22 21 21 24 25 25 27 28 29 27 27 25 27 28 27 28 31 32 30 28 26 27 29 28 27 29 28 30 31 31 31 32 32 32 33 34 35 36 36 37 37 37 38 38 38 39 39 39 39 40
31 31 32 31 30 29 29 30 30 30 30 29 28 27 26 26 21 18 18 18 20 20 20 21 21 22 22 24 26 27 28 28 27 27 27 26 26 25 23 22 28 32 28 26 22 22 27 27 25 27 28 29 29 30 30 31 31 32 33 34 35 35 36 36 36 36 36 37 37 38 38 39 39 39
31 30 30 29 29 29 30 30 29 30 30 29 28 28 28 27 27 26 21 19 19 20 20 20 21 23 23 25 27 27 27 26 26 27 26 26 25 24 22 23 22 29 28 23 22 22 27 28 26 25 27 28 29 29 29 30 31 32 33 34 34 34 35 35 35 35 36 36 37 37 37 38 38 38
31 30 28 27 27 28 29 28 29 28 28 29 29 28 28 28 28 27 28 27 24 23 22 20 22 24 25 25 26 28 27 28 25 25 25 26 25 24 22 23 24 26 27 23 22 20 25 26 25 25 27 28 28 28 29 30 31 32 32 33 33 34 34 35 35 35 35 36 36 36 36 36 36 37
31 30 28 26 25 27 27 28 28 28 28 27 27 26 26 26 27 28 29 28 27 26 25 24 22 27 28 26 28 29 29 26 24 25 24 25 23 22 22 24 23 24 26 21 21 18 23 26 24 23 26 28 28 28 29 29 30 31 31 32 32 33 34 34 34 34 35 35 35 35 35 35 35 36
31 29 28 27 26 26 26 27 27 27 27 26 25 24 24 24 26 27 28 28 28 27 27 28 27 28 29 28 29 29 29 28 28 27 25 24 23 22 22 21 22 22 25 23 21 14 22 24 22 23 26 27 26 28 27 28 28 30 30 31 32 33 33 33 33 33 34 34 34 35 35 35 35 35
30 29 27 27 26 26 26 28 30 28 27 25 23 22 23 23 25 26 29 30 30 29 29 29 29 29 29 29 29 29 29 29 27 24 22 20 17 16 16 15 17 16 23 24 20 15 17 23 21 22 25 25 24 25 26 27 28 29 30 31 31 31 31 31 32 32 33 34 34 34 34 35 35 34
29 27 27 27 26 25 25 28 30 30 28 24 22 22 21 22 23 24 28 31 31 31 31 30 30 30 30 31 31 31 31 28 24 21 19 17 16 14 13 14 15 16 21 20 22 18 16 21 20 18 21 22 21 23 25 26 27 28 29 29 30 30 30 30 31 31 32 33 33 34 34 34 34 33
26 26 27 27 26 25 25 29 31 31 28 23 22 22 21 21 21 22 25 27 29 31 30 30 30 31 30 31 31 31 29 28 26 19 16 16 15 13 13 11 14 14 17 20 23 16 16 19 19 17 18 20 21 23 25 25 26 26 26 27 28 28 29 30 30 31 31 32 33 33 33 33 33 31
25 25 27 27 26 25 26 30 32 32 28 23 23 22 21 19 19 21 24 23 24 25 25 27 28 28 29 27 26 25 24 23 23 22 18 17 15 13 13 12 11 12 15 20 23 14 15 15 17 17 12 13 19 20 23 24 23 24 25 25 25 27 28 29 29 30 30 30 31 32 32 32 32 29
22 23 25 27 29 28 29 31 32 32 30 23 23 23 20 19 18 23 22 22 23 24 25 24 24 23 22 23 22 22 21 20 19 20 20 18 16 12 12 12 12 12 14 21 22 15 15 16 13 17 13 9 9 18 19 19 22 23 24 24 25 26 27 27 27 28 29 30 30 31 31 31 30 29
21 21 23 24 28 29 29 31 32 32 30 27 23 22 21 22 23 24 21 23 25 23 23 22 20 20 19 18 18 19 19 18 18 19 20 20 19 15 12 12 11 11 14 19 21 17 12 14 11 14 12 13 12 12 16 19 21 22 23 24 23 25 26 26 26 27 27 28 29 29 29 31 31 29
21 21 23 23 27 30 29 31 32 33 31 28 23 22 25 26 27 23 22 23 23 21 21 20 17 16 15 14 13 14 15 15 15 16 17 19 19 20 17 15 12 11 11 19 20 17 13 11 13 11 11 11 10 14 12 14 19 21 23 24 24 24 25 25 26 25 26 26 27 27 27 30 31 30
21 22 23 24 28 29 30 30 32 33 33 28 24 26 27 28 28 25 22 21 20 19 17 17 16 15 13 12 12 12 13 14 15 16 18 18 19 19 19 19 19 17 18 19 20 18 15 12 14 11 10 11 10 11 12 12 14 20 21 22 24 24 25 24 24 24 25 25 25 28 28 29 30 30
22 22 23 24 29 30 30 31 32 33 32 27 27 28 29 29 28 21 18 18 17 16 15 15 15 13 12 12 12 11 13 14 15 16 17 17 18 17 17 18 16 17 17 18 18 18 15 13 13 14 13 11 9 8 8 15 17 18 17 21 22 23 23 24 23 23 23 24 24 25 25 24 26 26
24 24 26 28 29 30 31 31 32 32 32 29 29 29 29 29 23 19 18 16 15 15 14 15 14 13 11 13 13 15 16 16 17 15 14 15 14 13 13 13 13 13 14 14 15 17 15 14 13 14 13 13 11 11 13 12 15 15 18 16 15 19 22 23 22 22 22 23 23 23 23 24 23 26
27 27 28 28 29 30 30 29 29 29 30 30 29 29 29 25 18 18 17 15 15 15 15 13 12 11 11 12 14 15 15 13 11 11 9 10 9 10 9 9 10 11 12 14 16 17 17 17 16 15 13 14 15 13 14 13 12 15 17 16 17 19 20 22 22 22 22 21 22 22 23 25 24 24
25 26 26 26 28 28 30 29 30 29 30 29 28 27 25 18 16 16 16 16 16 15 14 12 10 10 11 13 11 10 10 9 10 11 9 9 8 9 9 8 8 10 12 13 16 18 18 18 19 18 14 14 15 15 15 15 13 13 14 16 17 12 16 20 21 21 22 22 23 23 24 24 24 25
24 24 26 26 26 27 27 27 26 26 24 22 18 17 16 15 15 17 19 17 16 14 12 10 9 8 8 6 7 8 8 8 8 10 8 8 7 8 8 6 7 9 10 11 13 15 16 18 18 19 19 16 13 14 15 14 13 13 13 15 16 17 19 17 19 21 22 22 20 20 21 22 22 23
23 23 23 22 23 23 22 18 15 14 13 13 13 11 11 12 13 13 13 12 10 9 8 7 6 5 5 4 6 5 5 6 7 9 7 7 7 7 8 6 7 7 7 8 11 13 14 16 17 19 19 17 18 15 13 10 12 14 13 13 15 15 17 20 20 20 22 20 17 18 19 21 22 23
21 21 20 21 21 20 17 16 14 13 11 9 9 10 12 10 10 10 9 9 6 6 6 6 5 3 4 3 4 4 5 5 6 7 8 6 8 6 6 6 6 7 8 8 10 11 13 14 15 15 15 15 16 15 14 11 10 12 13 15 15 14 17 19 20 21 21 19 18 16 16 18 21 24
20 20 19 19 19 17 17 16 15 13 13 11 10 10 10 8 8 9 8 7 5 6 5 4 4 4 4 3 4 3 4 4 6 6 7 7 6 6 5 5 5 7 7 8 10 12 13 13 14 12 12 13 12 14 19 16 12 12 13 15 16 15 15 18 18 19 19 18 19 15 15 17 18 22
20 20 19 18 17 16 15 15 14 14 14 12 11 9 7 6 8 7 6 6 6 5 4 4 3 3 4 4 4 4 4 5 5 5 5 6 5 5 6 5 6 7 8 9 10 12 13 13 12 9 7 7 6 5 9 21 20 15 12 12 15 15 16 16 16 17 17 17 17 16 13 13 15 20
20 19 19 18 17 16 16 16 14 13 13 11 10 9 8 7 6 5 7 7 5 5 4 4 4 4 4 4 4 4 4 4 3 5 4 5 5 5 4 5 6 7 8 9 12 12 13 12 12 9 7 5 4 3 6 15 18 22 19 13 13 14 14 14 14 13 16 18 17 17 16 16 16 19
19 19 18 17 16 16 17 16 14 13 12 11 9 9 8 6 5 5 7 5 4 4 5 5 4 4 4 4 2 2 3 4 4 3 4 4 3 3 4 4 6 7 8 10 12 12 13 12 10 9 8 5 3 3 4 10 12 15 21 18 13 13 15 13 12 12 13 17 17 18 19 16 17 19
20 18 17 16 16 16 15 15 14 13 11 10 9 9 7 5 5 5 6 4 4 4 5 4 3 3 2 2 3 3 3 3 2 3 3 3 4 3 4 5 5 8 9 9 11 12 12 10 10 9 9 7 5 5 8 6 6 12 16 19 17 13 13 14 13 14 14 14 15 19 19 21 22 24
19 18 17 17 16 16 15 14 13 13 10 9 10 9 5 5 4 4 4 3 3 3 3 2 3 3 2 2 2 3 2 2 1 2 3 3 4 5 5 6 6 8 8 8 9 10 10 10 10 10 10 11 11 12 12 11 11 13 13 15 20 18 16 16 14 14 13 15 16 14 13 16 15 18
18 17 17 17 16 15 14 12 11 10 9 9 7 7 6 5 4 3 3 2 2 1 1 1 2 2 2 2 2 1 0 2 2 3 3 3 4 5 6 7 7 9 8 7 8 8 8 11 12 16 13 13 13 13 9 6 4 7 10 13 18 21 21 21 18 16 14 16 15 13 12 12 12 14
18 17 17 16 15 14 13 11 10 8 5 5 5 4 3 4 2 5 4 5 1 1 1 1 2 2 1 1 0 1 0 1 2 2 3 3 3 5 6 7 7 8 8 6 7 8 12 13 12 12 12 11 9 6 3 4 4 6 9 12 14 18 20 20 21 21 19 17 14 12 12 12 13 11
16 16 14 13 12 11 10 8 8 6 4 4 3 3 2 2 4 5 3 2 1 1 0 1 1 -0 -0 -0 -0 0 0 0 1 1 2 3 4 4 6 7 8 8 8 8 10 10 11 12 12 11 10 9 7 7 4 5 6 7 8 9 11 13 15 18 20 21 22 22 22 19 17 14 10 7
15 12 11 11 10 10 8 6 6 5 3 2 2 2 1 1 2 3 2 1 1 -0 -0 -1 -2 -2 -2 -1 -1 -1 -0 -0 1 1 2 4 5 6 7 7 7 8 8 8 8 9 10 10 10 10 8 6 8 6 5 6 6 7 8 9 10 10 10 12 14 17 19 21 21 22 22 22 22 21
12 11 10 9 9 7 5 4 3 2 2 1 1 0 0 1 2 2 1 0 -0 -2 -2 -3 -3 -3 -2 -2 -2 -3 -1 2 3 3 5 6 6 7 7 7 7 7 7 8 7 7 8 8 9 10 8 7 8 7 7 7 6 7 7 7 6 8 9 10 10 10 11 13 18 21 21 22 22 22
MSLP
1019.70 1019.98 1020.26 1020.18 1020.58 1021.26 1021.58 1021.70 1021.82 1021.98 1022.26 1022.26 1022.10 1021.70 1021.14 1021.46 1021.38 1022.46 1023.18 1024.70 1025.10 1025.62 1025.86 1025.70 1026.30 1026.74 1026.86 1027.02 1027.14 1027.22 1027.30 1027.30 1027.26 1027.18 1027.14 1027.10 1026.98 1026.90 1026.70 1026.38 1026.06 1025.82 1025.58 1025.38 1025.22 1025.02 1024.90 1024.86 1024.86 1024.86 1024.82 1024.78 1024.74 1024.62 1024.46 1024.26 1023.98 1023.66 1023.42 1023.22 1023.02 1022.78 1022.58 1022.38 1022.26 1022.06 1021.90 1021.70 1021.54 1021.38 1021.22 1021.06 1020.90 1020.70
1019.30 1019.62 1020.06 1020.18 1020.50 1021.02 1021.22 1021.30 1021.58 1021.90 1022.02 1022.22 1022.22 1022.14 1022.18 1021.94 1021.26 1021.38 1021.38 1022.14 1024.42 1024.70 1025.66 1025.74 1025.98 1026.74 1026.94 1026.98 1027.06 1027.10 1027.06 1027.18 1027.22 1027.14 1027.06 1026.94 1026.82 1026.66 1026.42 1026.22 1025.98 1025.70 1025.42 1025.22 1025.10 1025.02 1025.02 1024.98 1024.90 1024.78 1024.70 1024.66 1024.58 1024.50 1024.34 1024.14 1023.86 1023.58 1023.34 1023.18 1022.94 1022.66 1022.38 1022.18 1022.02 1021.86 1021.66 1021.46 1021.34 1021.22 1021.14 1020.98 1020.78 1020.54
1018.90 1019.22 1019.54 1019.98 1020.18 1020.70 1020.90 1021.18 1021.54 1021.78 1021.98 1022.02 1022.22 1022.34 1022.58 1022.70 1022.34 1022.14 1021.86 1021.82 1024.38 1024.90 1025.10 1025.62 1026.02 1026.18 1026.58 1026.74 1026.78 1026.82 1026.98 1027.14 1027.10 1026.98 1026.94 1026.82 1026.70 1026.50 1026.26 1026.06 1025.78 1025.54 1025.38 1025.26 1025.18 1025.10 1024.98 1024.82 1024.66 1024.58 1024.54 1024.50 1024.42 1024.34 1024.22 1024.02 1023.78 1023.50 1023.22 1022.90 1022.70 1022.54 1022.42 1022.18 1021.94 1021.70 1021.50 1021.30 1021.14 1020.98 1020.86 1020.74 1020.62 1020.38
1018.54 1018.74 1019.02 1019.42 1019.66 1020.26 1020.62 1020.94 1021.18 1021.38 1021.62 1021.70 1021.94 1022.14 1022.38 1022.58 1022.82 1022.82 1022.46 1021.54 1023.42 1025.14 1025.02 1025.34 1025.98 1026.14 1026.26 1026.50 1026.66 1026.74 1026.90 1026.98 1027.02 1026.94 1026.90 1026.78 1026.66 1026.38 1026.06 1025.86 1025.74 1025.54 1025.30 1025.14 1024.94 1024.82 1024.62 1024.46 1024.34 1024.26 1024.22 1024.18 1024.18 1024.14 1023.98 1023.70 1023.38 1023.14 1022.90 1022.66 1022.46 1022.22 1022.10 1021.94 1021.78 1021.62 1021.46 1021.34 1021.18 1020.98 1020.70 1020.42 1020.22 1020.06
1018.22 1018.26 1018.42 1018.86 1019.22 1019.70 1020.02 1020.30 1020.70 1021.02 1021.22 1021.54 1021.66 1021.86 1022.10 1022.30 1022.70 1022.74 1022.38 1022.02 1023.62 1025.54 1025.62 1025.62 1025.82 1026.14 1026.30 1026.34 1026.34 1026.50 1026.58 1026.74 1026.78 1026.82 1026.74 1026.58 1026.34 1026.02 1025.62 1025.30 1025.18 1024.98 1024.78 1024.62 1024.50 1024.34 1024.14 1024.02 1023.98 1023.98 1024.02 1024.02 1023.94 1023.70 1023.42 1023.26 1023.14 1022.94 1022.62 1022.34 1022.06 1021.82 1021.70 1021.58 1021.50 1021.42 1021.30 1021.14 1020.98 1020.86 1020.66 1020.38 1020.02 1019.74
1017.62 1017.82 1018.06 1018.50 1018.90 1019.30 1019.50 1019.86 1020.30 1020.46 1020.86 1021.10 1021.34 1021.58 1021.66 1021.82 1022.30 1022.58 1022.42 1022.34 1022.70 1024.38 1025.82 1025.94 1025.98 1026.06 1026.14 1026.14 1026.06 1026.26 1026.30 1026.34 1026.38 1026.42 1026.30 1026.02 1025.74 1025.42 1025.02 1024.70 1024.50 1024.46 1024.34 1024.22 1024.10 1023.98 1023.94 1023.86 1023.82 1023.78 1023.74 1023.66 1023.58 1023.46 1023.34 1023.18 1022.90 1022.50 1022.14 1021.82 1021.66 1021.58 1021.46 1021.38 1021.26 1021.18 1021.06 1020.94 1020.70 1020.46 1020.34 1020.26 1019.94 1019.58
1016.94 1017.46 1017.54 1017.82 1018.46 1019.14 1019.50 1019.78 1020.02 1020.30 1020.54 1020.74 1020.94 1021.14 1021.34 1021.58 1021.90 1022.38 1022.42 1022.38 1022.78 1023.46 1024.54 1025.30 1025.62 1025.62 1025.74 1025.66 1025.74 1025.90 1025.98 1025.94 1025.86 1025.70 1025.46 1025.38 1025.26 1025.10 1024.86 1024.70 1024.58 1024.50 1024.38 1024.22 1024.06 1023.90 1023.78 1023.70 1023.66 1023.62 1023.62 1023.58 1023.46 1023.30 1023.06 1022.74 1022.30 1021.94 1021.66 1021.50 1021.42 1021.34 1021.26 1021.18 1021.06 1020.98 1020.86 1020.70 1020.46 1020.26 1020.02 1019.82 1019.66 1019.34
1016.18 1016.26 1016.82 1017.30 1017.86 1018.50 1018.98 1019.34 1019.70 1020.02 1020.22 1020.50 1020.74 1021.02 1021.18 1021.38 1021.82 1022.18 1022.58 1022.70 1022.42 1023.10 1023.90 1024.86 1024.90 1024.98 1025.22 1025.26 1025.46 1025.62 1025.62 1025.54 1025.34 1025.22 1025.06 1025.06 1025.02 1024.90 1024.74 1024.54 1024.34 1024.22 1024.10 1023.90 1023.66 1023.46 1023.42 1023.42 1023.50 1023.54 1023.54 1023.46 1023.14 1022.74 1022.34 1021.94 1021.66 1021.50 1021.42 1021.34 1021.26 1021.18 1021.06 1020.94 1020.86 1020.74 1020.62 1020.42 1020.26 1020.02 1019.74 1019.50 1019.26 1019.10
1015.06 1015.46 1015.54 1016.06 1017.14 1017.78 1018.26 1018.86 1019.22 1019.50 1019.90 1020.26 1020.58 1020.78 1021.02 1021.26 1021.66 1022.26 1022.62 1022.94 1023.18 1023.38 1023.58 1024.22 1024.70 1024.82 1024.98 1025.02 1025.14 1025.18 1025.26 1025.10 1025.02 1024.90 1024.78 1024.62 1024.54 1024.42 1024.30 1024.14 1023.98 1023.86 1023.74 1023.62 1023.54 1023.50 1023.50 1023.50 1023.54 1023.54 1023.46 1023.14 1022.54 1022.06 1021.70 1021.50 1021.42 1021.34 1021.30 1021.22 1021.10 1020.94 1020.78 1020.62 1020.50 1020.30 1020.18 1020.06 1019.90 1019.78 1019.50 1019.22 1018.94 1018.70
1014.14 1014.38 1014.82 1015.54 1016.22 1016.82 1017.14 1017.66 1018.30 1018.90 1019.34 1019.90 1020.34 1020.66 1020.98 1021.26 1021.62 1022.14 1022.62 1022.98 1023.26 1023.42 1023.54 1023.86 1024.34 1024.50 1024.66 1024.54 1024.50 1024.66 1024.82 1024.78 1024.54 1024.26 1024.14 1024.14 1024.18 1024.02 1023.74 1023.50 1023.46 1023.54 1023.58 1023.62 1023.66 1023.62 1023.58 1023.54 1023.54 1023.50 1023.14 1022.50 1021.94 1021.58 1021.42 1021.34 1021.26 1021.22 1021.22 1021.10 1020.90 1020.66 1020.46 1020.26 1020.10 1019.90 1019.70 1019.58 1019.50 1019.30 1019.14 1018.94 1018.62 1018.34
1013.70 1014.02 1014.46 1015.02 1015.54 1015.86 1016.14 1016.70 1017.30 1017.94 1018.78 1019.30 1019.74 1020.06 1020.62 1021.06 1021.42 1021.86 1022.34 1022.78 1023.10 1023.34 1023.62 1023.86 1024.02 1024.18 1024.22 1024.34 1024.34 1024.18 1024.38 1024.46 1024.42 1024.46 1024.26 1024.10 1024.06 1024.26 1024.22 1023.86 1023.62 1023.78 1023.98 1024.02 1023.98 1023.86 1023.70 1023.62 1023.46 1023.14 1022.54 1021.98 1021.70 1021.50 1021.38 1021.30 1021.22 1021.14 1021.10 1020.90 1020.70 1020.50 1020.26 1020.02 1019.74 1019.54 1019.34 1019.22 1019.02 1018.90 1018.74 1018.54 1018.30 1017.98
1013.14 1013.50 1013.86 1014.34 1014.90 1015.10 1015.42 1015.82 1016.50 1017.06 1017.74 1018.62 1019.30 1019.90 1020.42 1020.86 1021.26 1021.62 1022.06 1022.58 1022.94 1023.26 1023.42 1023.62 1023.74 1023.82 1024.02 1024.02 1024.14 1024.22 1024.22 1024.42 1024.50 1024.66 1024.94 1024.90 1024.58 1024.54 1024.50 1024.42 1024.34 1024.14 1024.22 1024.22 1024.06 1023.98 1023.86 1023.62 1023.30 1022.90 1022.38 1021.98 1021.82 1021.70 1021.58 1021.42 1021.26 1021.14 1020.94 1020.74 1020.50 1020.26 1020.06 1019.82 1019.58 1019.34 1019.14 1018.90 1018.74 1018.50 1018.30 1018.10 1017.86 1017.58
1012.62 1012.98 1013.30 1013.70 1014.30 1014.82 1015.22 1015.54 1015.90 1016.18 1016.54 1017.30 1018.46 1019.34 1019.74 1020.30 1020.78 1021.26 1021.74 1022.18 1022.70 1023.02 1023.26 1023.46 1023.46 1023.62 1023.66 1023.70 1023.82 1024.02 1024.14 1024.26 1024.38 1024.50 1024.86 1025.10 1024.98 1024.82 1024.78 1024.46 1024.26 1024.22 1024.18 1024.10 1024.14 1024.06 1023.82 1023.50 1023.02 1022.58 1022.14 1021.82 1021.78 1021.70 1021.62 1021.38 1021.22 1021.10 1020.86 1020.58 1020.34 1020.10 1019.90 1019.66 1019.42 1019.18 1018.86 1018.62 1018.38 1018.18 1017.94 1017.70 1017.42 1017.18
1012.26 1012.46 1012.82 1013.26 1013.90 1014.54 1014.98 1015.34 1015.82 1016.34 1016.78 1016.94 1016.78 1017.42 1018.54 1019.26 1019.98 1020.50 1021.14 1021.74 1022.10 1022.46 1022.90 1023.06 1022.94 1023.30 1023.26 1023.18 1023.30 1023.50 1023.58 1023.90 1024.30 1024.78 1024.94 1025.06 1024.78 1024.90 1024.90 1024.42 1023.94 1023.90 1024.10 1024.30 1024.22 1023.82 1023.46 1023.18 1022.70 1022.30 1021.94 1021.62 1021.62 1021.50 1021.42 1021.26 1021.10 1020.90 1020.66 1020.34 1020.06 1019.86 1019.66 1019.42 1019.22 1018.94 1018.70 1018.42 1018.14 1017.86 1017.58 1017.34 1017.06 1016.78
1011.82 1012.26 1012.70 1013.14 1013.70 1014.26 1014.74 1015.14 1015.50 1015.90 1016.30 1016.78 1017.34 1017.66 1017.58 1017.70 1018.26 1019.54 1020.66 1021.06 1021.26 1021.74 1022.14 1022.38 1022.54 1022.54 1022.58 1022.62 1022.78 1023.02 1023.34 1023.78 1024.30 1024.46 1024.58 1024.74 1024.78 1024.74 1024.66 1024.22 1023.54 1023.62 1024.10 1024.18 1023.98 1023.42 1022.90 1022.66 1022.34 1021.94 1021.58 1021.38 1021.30 1021.22 1021.18 1021.10 1020.90 1020.70 1020.46 1020.10 1019.74 1019.50 1019.38 1019.26 1019.06 1018.82 1018.58 1018.30 1017.94 1017.62 1017.30 1016.98 1016.66 1016.34
1011.78 1012.18 1012.58 1013.02 1013.42 1013.70 1014.02 1014.62 1015.26 1015.78 1016.18 1016.62 1017.06 1017.46 1017.90 1018.18 1018.38 1018.02 1018.18 1019.54 1020.86 1021.18 1021.50 1021.82 1021.74 1021.78 1021.90 1022.02 1022.34 1022.74 1023.18 1023.66 1023.90 1024.10 1024.26 1024.34 1024.38 1024.30 1024.22 1023.94 1023.86 1023.18 1023.74 1023.86 1023.38 1022.70 1022.22 1022.10 1021.90 1021.62 1021.14 1020.98 1020.94 1020.94 1020.86 1020.74 1020.62 1020.46 1020.22 1019.82 1019.50 1019.30 1019.14 1018.98 1018.78 1018.50 1018.18 1017.86 1017.54 1017.26 1016.94 1016.62 1016.30 1015.94
1011.18 1011.78 1012.34 1012.90 1013.26 1013.54 1014.02 1014.50 1014.82 1015.26 1015.90 1016.42 1016.74 1017.18 1017.62 1017.98 1018.14 1018.46 1018.62 1018.30 1018.34 1019.38 1020.38 1020.78 1020.94 1020.90 1021.18 1021.74 1021.90 1022.26 1022.70 1023.02 1023.54 1023.70 1023.78 1023.78 1023.78 1023.86 1023.98 1023.58 1023.34 1023.14 1023.38 1023.30 1022.66 1022.22 1021.66 1021.54 1021.42 1021.18 1020.62 1020.50 1020.50 1020.46 1020.38 1020.34 1020.26 1020.10 1019.86 1019.62 1019.38 1019.14 1018.90 1018.66 1018.46 1018.14 1017.82 1017.58 1017.26 1016.90 1016.54 1016.30 1015.98 1015.58
1010.22 1010.70 1011.34 1012.02 1012.66 1013.10 1013.46 1013.86 1014.26 1014.78 1015.34 1015.90 1016.46 1016.90 1017.34 1017.66 1017.98 1018.22 1018.34 1018.62 1018.94 1019.10 1019.42 1019.82 1020.22 1020.30 1020.70 1021.06 1021.46 1021.90 1022.30 1022.62 1022.90 1022.98 1023.10 1023.18 1023.62 1023.70 1023.46 1023.18 1023.26 1023.02 1022.94 1022.78 1022.30 1021.90 1021.14 1021.06 1021.02 1020.62 1020.18 1020.14 1020.10 1020.02 1019.90 1019.78 1019.74 1019.70 1019.38 1019.10 1018.90 1018.78 1018.58 1018.26 1017.94 1017.70 1017.50 1017.26 1016.94 1016.66 1016.26 1015.86 1015.54 1015.18
1009.26 1009.82 1010.46 1011.06 1011.58 1012.22 1012.70 1013.10 1013.54 1014.14 1014.66 1015.22 1015.78 1016.26 1016.74 1017.10 1017.46 1017.66 1017.86 1018.10 1018.38 1018.70 1019.02 1019.34 1019.70 1019.98 1020.26 1020.86 1021.22 1021.62 1021.82 1022.06 1022.14 1022.30 1022.70 1023.02 1023.34 1023.46 1023.46 1023.30 1022.94 1022.66 1022.26 1022.22 1022.06 1021.94 1020.86 1020.90 1020.70 1020.10 1019.82 1019.78 1019.82 1019.62 1019.46 1019.42 1019.30 1019.06 1018.94 1018.78 1018.54 1018.26 1018.02 1017.82 1017.62 1017.30 1017.02 1016.78 1016.50 1016.14 1015.86 1015.54 1015.10 1014.70
1009.06 1009.58 1010.10 1010.62 1011.06 1011.58 1012.02 1012.54 1012.98 1013.46 1014.06 1014.78 1015.34 1015.90 1016.46 1016.98 1017.30 1017.38 1017.38 1017.62 1017.94 1018.30 1018.62 1018.98 1019.22 1019.54 1019.94 1020.46 1020.90 1021.14 1021.42 1021.58 1021.98 1022.54 1023.02 1023.42 1023.70 1023.70 1023.42 1022.90 1022.30 1022.42 1021.74 1021.78 1021.82 1021.74 1021.22 1020.58 1020.34 1019.70 1019.62 1019.46 1019.30 1019.18 1018.90 1018.74 1018.70 1018.54 1018.42 1018.38 1018.26 1018.02 1017.66 1017.38 1017.18 1016.94 1016.62 1016.26 1016.02 1015.74 1015.34 1014.86 1014.50 1014.18
1008.66 1009.10 1009.54 1010.02 1010.62 1011.22 1011.70 1012.06 1012.46 1013.06 1013.62 1014.26 1014.86 1015.38 1015.98 1016.54 1016.98 1017.18 1017.26 1017.38 1017.66 1018.10 1018.46 1018.82 1019.06 1019.34 1019.62 1020.02 1020.42 1020.78 1020.94 1021.30 1021.90 1022.46 1022.74 1022.78 1023.14 1023.14 1022.90 1022.38 1022.10 1021.90 1021.58 1021.50 1021.42 1021.46 1021.18 1020.42 1020.30 1019.54 1019.22 1019.22 1018.74 1018.50 1018.46 1018.26 1018.26 1018.26 1018.10 1017.94 1017.70 1017.42 1017.18 1017.14 1016.86 1016.46 1016.10 1015.86 1015.62 1015.18 1014.78 1014.46 1014.10 1013.70
1008.74 1009.02 1009.30 1009.62 1010.02 1010.54 1011.14 1011.58 1012.02 1012.54 1013.06 1013.66 1014.10 1014.78 1015.50 1016.22 1016.70 1016.94 1017.06 1017.30 1017.54 1017.94 1018.30 1018.58 1018.70 1018.94 1019.30 1019.66 1020.02 1020.38 1020.74 1021.10 1021.54 1022.26 1022.26 1022.26 1022.58 1022.50 1022.30 1022.38 1021.86 1022.02 1021.70 1021.30 1021.18 1021.42 1020.98 1020.62 1020.50 1019.74 1018.50 1018.46 1017.86 1017.90 1017.86 1017.94 1017.94 1017.98 1017.94 1017.66 1017.30 1016.98 1016.78 1016.54 1016.38 1016.14 1015.78 1015.26 1014.94 1014.74 1014.42 1014.10 1013.86 1013.42
1008.70 1009.06 1009.22 1009.42 1009.78 1010.10 1010.62 1010.98 1011.38 1011.94 1012.62 1013.26 1013.58 1014.10 1014.90 1015.66 1016.02 1016.14 1016.46 1016.90 1017.30 1017.66 1018.02 1018.30 1018.46 1018.70 1019.02 1019.66 1020.26 1020.70 1020.98 1021.22 1021.58 1021.82 1021.98 1021.98 1021.98 1021.82 1021.86 1022.10 1022.22 1021.86 1021.26 1021.26 1021.14 1021.46 1021.02 1021.14 1020.70 1020.34 1019.30 1017.78 1017.30 1017.58 1017.58 1017.82 1018.02 1017.74 1017.34 1017.22 1016.94 1016.70 1016.42 1016.06 1015.94 1015.66 1015.30 1014.90 1014.54 1014.30 1014.14 1013.74 1013.74 1013.30
1008.74 1008.82 1009.02 1009.22 1009.46 1009.90 1010.26 1010.54 1010.86 1011.38 1011.98 1012.70 1013.06 1013.62 1014.18 1014.74 1015.38 1015.70 1016.30 1016.70 1017.06 1017.42 1017.66 1017.90 1018.26 1018.74 1019.38 1019.94 1020.38 1020.70 1020.98 1021.22 1021.54 1021.70 1021.58 1021.42 1021.38 1021.50 1021.50 1021.70 1021.70 1021.58 1021.22 1020.78 1021.02 1021.62 1021.42 1021.14 1021.14 1020.78 1021.42 1021.26 1019.02 1017.06 1017.62 1017.54 1017.22 1017.38 1017.22 1016.58 1016.10 1016.10 1016.02 1015.50 1015.30 1015.06 1014.78 1014.42 1014.10 1013.78 1013.58 1013.46 1013.38 1013.06
1008.14 1008.54 1008.66 1008.90 1009.18 1009.50 1009.86 1010.18 1010.54 1011.02 1011.74 1012.46 1012.82 1013.06 1013.34 1013.58 1014.18 1015.10 1015.90 1016.42 1016.90 1017.38 1017.58 1017.94 1018.46 1018.86 1019.46 1020.02 1020.42 1020.66 1020.82 1021.14 1021.42 1021.42 1021.14 1020.90 1020.70 1020.82 1021.06 1021.26 1021.58 1021.66 1021.26 1021.18 1021.22 1021.42 1021.66 1021.14 1021.18 1020.82 1021.06 1020.86 1019.98 1018.90 1017.18 1017.62 1017.18 1016.58 1016.50 1016.66 1015.90 1015.30 1015.38 1015.02 1014.62 1014.18 1014.26 1014.02 1013.70 1013.42 1013.10 1012.74 1012.66 1012.74
1007.74 1007.90 1008.10 1008.46 1008.62 1009.02 1009.54 1009.86 1010.10 1010.46 1011.14 1011.98 1012.58 1013.02 1013.46 1013.98 1014.34 1014.82 1015.46 1015.94 1016.54 1017.30 1017.74 1018.10 1018.70 1019.14 1019.70 1020.18 1020.54 1020.78 1021.02 1021.22 1021.34 1021.22 1020.90 1020.50 1020.26 1020.18 1020.30 1020.70 1021.26 1021.42 1021.22 1020.98 1021.18 1021.38 1021.38 1021.18 1020.94 1021.02 1020.70 1020.86 1019.74 1019.66 1018.58 1017.10 1016.98 1016.86 1016.10 1015.70 1015.82 1015.22 1014.98 1014.46 1014.02 1013.70 1013.66 1013.34 1012.98 1012.82 1012.58 1012.02 1011.66 1011.70
1007.22 1007.58 1007.82 1008.06 1008.30 1008.46 1008.82 1009.22 1009.46 1009.90 1010.46 1011.42 1012.10 1012.78 1013.30 1013.62 1013.94 1014.58 1015.30 1015.78 1016.26 1016.94 1017.62 1018.06 1018.46 1019.06 1019.74 1020.06 1020.38 1020.78 1020.98 1021.02 1021.06 1020.82 1020.38 1020.10 1019.90 1019.90 1020.06 1020.30 1020.62 1020.82 1020.78 1020.82 1021.02 1021.06 1021.06 1020.94 1020.74 1020.94 1020.82 1020.74 1020.54 1019.42 1019.14 1018.14 1016.58 1016.10 1015.70 1015.14 1015.18 1014.94 1014.58 1014.46 1013.74 1013.14 1013.18 1012.86 1012.34 1012.10 1011.90 1011.50 1010.94 1010.74
1006.62 1006.98 1007.34 1007.78 1007.98 1008.14 1008.46 1008.74 1008.94 1009.26 1009.82 1010.74 1011.70 1012.42 1012.74 1013.06 1013.46 1014.42 1015.26 1015.98 1016.34 1016.78 1017.54 1017.90 1018.34 1018.98 1019.54 1019.82 1020.18 1020.58 1020.74 1020.82 1020.62 1020.34 1020.02 1019.78 1019.66 1019.74 1019.94 1020.22 1020.54 1020.66 1020.70 1020.78 1020.78 1020.74 1020.62 1020.58 1020.46 1020.50 1020.70 1020.82 1020.66 1020.14 1019.10 1017.54 1017.34 1016.82 1016.06 1014.58 1014.46 1014.50 1014.30 1013.70 1013.26 1013.02 1012.78 1012.50 1011.98 1011.42 1011.06 1010.42 1009.98 1010.10
1006.06 1006.50 1006.98 1007.30 1007.38 1007.66 1008.02 1008.30 1008.62 1008.98 1009.42 1010.38 1011.22 1011.78 1012.06 1012.34 1013.10 1014.10 1014.82 1015.50 1016.14 1016.50 1016.94 1017.38 1018.06 1018.54 1019.22 1019.42 1019.82 1020.18 1020.46 1020.46 1020.30 1020.10 1019.86 1019.66 1019.74 1019.86 1020.10 1020.34 1020.46 1020.50 1020.62 1020.62 1020.50 1020.34 1020.22 1020.06 1019.98 1020.02 1020.30 1020.38 1020.38 1019.62 1019.38 1018.06 1017.10 1016.42 1016.30 1015.54 1014.26 1013.58 1013.94 1013.58 1012.78 1012.42 1012.18 1011.78 1011.38 1010.90 1010.18 1009.66 1009.42 1009.18
1005.54 1006.14 1006.66 1006.94 1007.22 1007.46 1007.70 1008.18 1008.42 1008.62 1009.06 1009.90 1010.62 1011.18 1011.54 1012.10 1013.14 1013.82 1014.54 1015.42 1015.78 1015.98 1016.66 1017.34 1017.94 1018.54 1019.18 1019.54 1019.86 1020.18 1020.30 1020.30 1020.18 1019.90 1019.86 1019.70 1019.78 1019.86 1020.10 1020.14 1020.10 1020.14 1020.26 1020.22 1020.06 1019.90 1019.70 1019.54 1019.46 1019.54 1019.66 1019.70 1019.70 1019.34 1018.82 1018.14 1016.78 1016.02 1015.78 1015.78 1014.98 1013.82 1013.22 1013.26 1012.26 1011.50 1011.54 1011.02 1010.54 1010.10 1009.14 1008.74 1008.62 1008.86
1005.38 1005.94 1006.46 1006.90 1007.06 1007.14 1007.34 1007.70 1008.14 1008.70 1009.18 1009.62 1010.14 1010.62 1011.26 1012.50 1013.26 1013.74 1014.14 1014.58 1014.98 1015.78 1016.62 1017.42 1018.14 1018.78 1019.14 1019.54 1019.98 1020.22 1020.14 1020.14 1019.90 1019.54 1019.62 1019.54 1019.58 1019.58 1019.70 1019.70 1019.82 1019.70 1019.66 1019.70 1019.66 1019.50 1019.34 1019.22 1019.18 1019.18 1019.22 1018.90 1018.86 1018.78 1018.50 1018.18 1017.18 1016.06 1014.94 1014.82 1015.14 1014.82 1012.46 1012.54 1011.86 1011.38 1010.86 1010.14 1009.58 1009.14 1008.50 1007.98 1007.54 1007.42
1005.18 1005.74 1006.30 1006.78 1007.02 1007.10 1007.14 1007.34 1007.86 1008.42 1009.06 1009.62 1010.38 1011.22 1011.94 1012.62 1013.30 1013.74 1014.14 1014.78 1015.26 1016.02 1016.78 1017.46 1018.22 1018.82 1019.26 1019.82 1019.94 1019.98 1019.94 1019.82 1019.66 1019.38 1019.42 1019.34 1019.46 1019.34 1019.42 1019.50 1019.42 1019.30 1019.38 1019.34 1019.38 1019.30 1019.22 1019.14 1019.02 1018.90 1018.74 1018.54 1018.30 1017.86 1017.98 1017.78 1017.10 1016.26 1015.22 1014.26 1014.06 1013.34 1012.90 1012.50 1011.38 1010.62 1010.54 1009.82 1008.74 1008.02 1007.50 1007.06 1006.86 1006.62
1005.18 1005.58 1005.94 1006.26 1006.54 1006.66 1006.86 1007.58 1008.38 1009.18 1010.02 1010.78 1011.26 1011.82 1012.38 1012.90 1013.34 1013.82 1014.22 1014.82 1015.54 1016.26 1016.90 1017.50 1018.02 1018.74 1019.18 1019.66 1019.70 1019.90 1019.82 1019.66 1019.46 1019.18 1019.34 1019.22 1019.22 1019.18 1019.18 1019.46 1019.30 1019.30 1019.30 1019.30 1019.18 1019.06 1019.02 1018.90 1018.70 1018.50 1018.22 1018.06 1017.90 1017.78 1017.74 1017.10 1015.90 1015.34 1015.26 1014.34 1013.66 1012.42 1011.58 1011.62 1011.18 1010.34 1010.10 1009.50 1008.66 1007.70 1006.54 1006.02 1006.14 1005.98
1004.50 1004.94 1005.34 1005.58 1005.82 1006.26 1007.06 1007.78 1008.42 1009.14 1009.98 1010.94 1011.54 1011.90 1012.22 1012.78 1013.34 1013.90 1014.38 1014.90 1015.62 1016.26 1016.86 1017.34 1018.02 1018.66 1019.06 1019.46 1019.54 1019.66 1019.42 1019.34 1019.26 1019.10 1018.86 1018.94 1018.74 1019.06 1019.10 1019.18 1019.10 1018.98 1019.06 1019.14 1019.10 1018.94 1018.74 1018.50 1018.22 1017.90 1017.66 1017.42 1017.14 1017.06 1017.14 1016.98 1015.26 1014.10 1014.02 1013.82 1013.26 1012.30 1010.94 1010.78 1010.14 1009.90 1009.62 1009.06 1008.34 1007.26 1006.22 1004.66 1004.02 1004.62
1003.94 1004.34 1004.78 1005.10 1005.54 1006.18 1006.74 1007.34 1007.90 1008.78 1009.54 1010.38 1011.02 1011.54 1012.06 1012.66 1013.10 1013.66 1014.26 1015.02 1015.70 1016.26 1016.94 1017.66 1018.14 1018.54 1018.82 1019.06 1019.06 1019.30 1019.02 1018.98 1018.86 1018.86 1018.70 1018.66 1018.78 1018.90 1018.94 1018.94 1018.78 1018.74 1018.78 1018.82 1018.78 1018.58 1018.38 1018.14 1017.78 1017.34 1016.66 1016.26 1015.78 1014.90 1015.38 1015.46 1015.42 1013.98 1013.26 1012.58 1012.34 1011.74 1010.82 1010.30 1009.74 1009.22 1009.14 1008.26 1007.90 1007.18 1005.38 1003.78 1002.46 1002.78
1003.50 1003.62 1004.02 1004.62 1005.22 1005.74 1006.26 1006.78 1007.54 1008.18 1008.82 1009.86 1010.50 1011.46 1012.26 1012.82 1013.06 1013.46 1014.06 1014.66 1015.26 1016.06 1016.86 1017.54 1018.06 1018.30 1018.54 1018.62 1018.70 1018.70 1018.74 1018.58 1018.54 1018.34 1018.42 1018.46 1018.62 1018.62 1018.58 1018.62 1018.54 1018.50 1018.42 1018.42 1018.30 1018.10 1017.90 1017.78 1017.58 1017.58 1017.10 1016.18 1015.82 1014.74 1013.62 1013.62 1014.14 1014.22 1013.70 1011.90 1010.94 1010.78 1010.42 1009.98 1009.22 1008.46 1008.06 1007.70 1006.86 1006.14 1005.26 1003.38 1000.94 1000.34
1002.30 1003.10 1003.62 1004.10 1004.78 1005.26 1005.54 1006.14 1006.86 1007.58 1008.22 1009.06 1010.02 1010.62 1011.14 1011.86 1012.70 1013.18 1013.62 1014.14 1014.98 1015.70 1016.38 1017.02 1017.50 1017.82 1018.06 1018.18 1018.22 1018.26 1018.26 1018.18 1018.30 1018.14 1018.26 1018.22 1018.30 1018.38 1018.38 1018.26 1018.10 1017.98 1017.90 1017.82 1017.66 1017.54 1017.34 1017.34 1017.34 1017.58 1017.42 1017.06 1016.38 1015.50 1013.50 1013.06 1013.22 1013.62 1013.34 1012.70 1011.22 1009.90 1009.78 1009.54 1008.70 1007.38 1006.58 1006.78 1005.90 1005.38 1004.14 1002.74 1000.82 999.38
1001.14 1002.10 1003.14 1003.90 1004.54 1005.06 1005.42 1005.90 1006.50 1007.06 1007.74 1008.58 1009.42 1010.30 1010.98 1011.70 1012.50 1013.06 1013.42 1014.14 1014.94 1015.62 1016.06 1016.54 1017.10 1017.30 1017.58 1017.62 1017.82 1017.86 1017.94 1017.94 1018.02 1018.06 1018.06 1018.06 1018.22 1018.14 1017.94 1017.86 1017.66 1017.54 1017.38 1017.22 1017.06 1016.94 1016.90 1016.98 1017.14 1017.22 1017.38 1017.30 1016.62 1015.54 1013.66 1011.46 1012.14 1012.38 1012.78 1012.90 1012.34 1010.70 1009.42 1009.26 1008.54 1007.26 1005.54 1005.22 1005.42 1004.10 1003.26 1001.78 1000.30 999.30
1000.50 1001.30 1002.26 1003.34 1004.26 1004.74 1005.30 1005.90 1006.50 1007.02 1007.78 1008.58 1009.26 1009.86 1010.66 1011.54 1012.14 1012.70 1013.10 1013.86 1014.58 1015.18 1015.54 1016.06 1016.50 1016.78 1017.06 1017.22 1017.34 1017.34 1017.38 1017.50 1017.66 1017.74 1017.78 1017.86 1017.78 1017.78 1017.66 1017.50 1017.38 1017.06 1016.78 1016.58 1016.38 1016.46 1016.58 1016.82 1016.78 1016.82 1016.82 1016.82 1016.50 1015.46 1014.66 1013.62 1011.22 1010.66 1011.62 1012.18 1012.14 1011.42 1010.18 1009.34 1008.18 1006.86 1005.50 1004.34 1003.70 1002.90 1001.74 1001.02 1000.10 998.78
1000.02 1000.74 1001.58 1002.50 1003.46 1004.14 1004.82 1005.66 1006.42 1007.02 1007.86 1008.50 1008.98 1009.70 1010.58 1011.26 1011.86 1012.38 1013.10 1013.82 1014.42 1014.94 1015.18 1015.62 1015.94 1016.26 1016.58 1016.62 1016.70 1016.78 1016.98 1017.14 1017.34 1017.42 1017.46 1017.42 1017.34 1017.26 1017.26 1017.10 1016.94 1016.58 1016.26 1016.06 1016.06 1016.14 1016.26 1016.38 1016.38 1016.22 1016.06 1015.82 1015.42 1014.98 1014.30 1013.26 1011.62 1010.18 1009.82 1009.70 1010.58 1010.42 1009.62 1009.22 1008.06 1006.94 1005.42 1004.10 1003.58 1002.74 1000.50 998.66 998.22 997.34
1000.26 1000.86 1001.42 1002.06 1002.98 1003.78 1004.58 1005.54 1006.34 1007.06 1007.82 1008.50 1009.30 1010.10 1010.62 1011.18 1011.90 1012.58 1013.18 1013.78 1014.34 1014.86 1015.26 1015.54 1015.70 1015.74 1015.90 1016.02 1016.22 1016.38 1016.66 1016.74 1016.86 1016.94 1016.94 1016.94 1016.90 1016.82 1016.78 1016.58 1016.34 1015.98 1015.82 1015.50 1015.50 1015.58 1015.82 1015.74 1015.66 1015.54 1015.42 1015.10 1014.78 1014.42 1013.70 1012.86 1011.50 1009.54 1008.90 1008.14 1008.30 1008.86 1008.86 1008.66 1007.90 1006.98 1005.82 1004.50 1003.78 1002.74 1001.10 999.26 998.06 996.34
1000.22 1000.78 1001.34 1002.02 1002.74 1003.66 1004.62 1005.54 1006.46 1007.30 1008.10 1008.78 1009.42 1010.06 1010.82 1011.46 1012.26 1012.78 1013.34 1013.70 1014.34 1014.70 1014.98 1015.14 1015.26 1015.38 1015.66 1015.90 1016.22 1016.34 1016.50 1016.46 1016.42 1016.46 1016.46 1016.54 1016.58 1016.46 1016.30 1016.10 1015.86 1015.62 1015.50 1015.22 1014.94 1014.82 1014.78 1015.02 1015.06 1015.10 1015.02 1014.86 1014.58 1014.38 1013.30 1012.10 1010.98 1009.42 1008.18 1007.34 1006.54 1006.38 1006.98 1007.26 1007.10 1006.46 1005.62 1004.90 1004.02 1002.66 1000.50 998.42 997.78 996.70
1000.38 1000.86 1001.54 1002.26 1002.98 1003.82 1004.78 1005.70 1006.42 1007.22 1008.10 1008.82 1009.50 1010.18 1010.94 1011.78 1012.26 1012.54 1013.26 1013.66 1014.14 1014.42 1014.66 1014.86 1015.06 1015.30 1015.58 1015.90 1016.18 1016.22 1016.30 1016.30 1016.26 1016.26 1016.26 1016.18 1016.14 1016.06 1015.78 1015.50 1015.38 1015.30 1015.14 1014.78 1014.38 1014.18 1014.06 1014.14 1014.38 1014.46 1014.38 1014.34 1014.02 1013.70 1012.82 1011.42 1010.42 1009.34 1008.22 1007.18 1006.02 1005.10 1004.46 1004.78 1005.38 1005.06 1004.46 1003.82 1003.50 1002.62 1001.66 1000.38 999.10 996.50
1000.42 1001.18 1001.94 1002.50 1003.14 1003.94 1004.82 1005.58 1006.34 1007.38 1008.10 1008.78 1009.42 1010.18 1010.86 1011.54 1011.98 1012.38 1012.94 1013.38 1013.74 1014.18 1014.46 1014.78 1015.06 1015.26 1015.54 1015.82 1016.02 1016.18 1016.14 1016.18 1016.18 1016.14 1016.06 1015.86 1015.66 1015.46 1015.30 1015.18 1015.10 1014.98 1014.78 1014.46 1014.02 1013.70 1013.54 1013.54 1013.66 1013.82 1013.66 1013.38 1013.06 1012.78 1012.02 1011.22 1010.02 1008.98 1008.22 1007.26 1006.34 1005.46 1004.10 1002.94 1002.38 1002.34 1002.30 1002.02 1001.74 1001.18 1000.38 999.82 998.86 997.46
1000.66 1001.26 1001.94 1002.66 1003.26 1004.02 1004.86 1005.66 1006.50 1007.46 1008.26 1009.02 1009.70 1010.38 1011.06 1011.54 1012.02 1012.50 1012.98 1013.38 1013.70 1014.10 1014.46 1014.70 1014.90 1015.18 1015.42 1015.62 1015.78 1015.86 1015.98 1015.86 1015.78 1015.74 1015.58 1015.42 1015.22 1015.14 1015.06 1014.94 1014.78 1014.58 1014.38 1014.10 1013.78 1013.22 1013.06 1013.06 1012.98 1012.98 1012.74 1012.30 1012.14 1011.78 1011.18 1010.70 1009.78 1008.82 1007.82 1007.06 1006.10 1005.10 1004.10 1003.10 1002.02 1000.74 1000.14 999.70 999.78 999.82 998.74 997.98 997.06 996.14
Wind_Speed
9 7 10 8 6 6 5 5 5 5 5 4 5 6 7 6 5 3 4 6 6 6 9 7 6 5 4 3 2 2 1 1 2 2 3 4 4 8 10 11 12 12 13 13 13 13 14 14 14 13 14 14 16 16 16 16 16 16 16 17 17 17 18 18 18 19 19 20 20 21 21 22 22 23
8 8 7 7 6 6 6 6 6 6 6 6 5 5 2 4 7 5 6 4 5 3 5 3 3 5 4 2 2 1 1 2 3 3 4 4 5 9 10 11 11 12 12 13 12 12 12 11 12 12 13 14 15 16 16 16 16 17 16 17 17 18 19 19 19 19 20 20 21 21 22 22 23 23
9 10 10 8 6 7 7 7 6 6 6 6 5 4 4 3 3 3 3 2 3 2 7 5 1 6 5 2 1 1 2 3 3 3 4 5 7 10 8 10 10 11 11 11 10 10 10 10 11 13 13 14 15 16 16 16 16 16 17 17 18 18 19 19 19 20 20 21 22 22 22 23 23 24
9 10 11 10 8 8 7 7 7 7 6 6 6 6 6 4 4 4 5 5 4 3 3 5 3 4 4 3 4 4 3 3 5 4 4 6 8 6 5 8 8 9 9 10 10 10 10 11 13 14 14 15 16 17 17 18 17 17 18 18 19 19 18 19 20 20 20 21 22 23 24 25 24 25
10 11 11 11 9 10 10 8 8 8 8 7 6 6 6 6 6 6 6 6 6 2 1 3 4 3 3 4 5 3 3 3 4 5 6 6 5 5 5 4 6 8 10 10 11 11 11 13 13 14 14 15 16 17 18 18 18 18 18 19 19 20 20 20 20 21 21 21 22 23 24 25 26 26
10 11 12 11 11 12 10 10 10 9 9 9 8 8 8 7 7 5 6 5 6 7 5 4 3 4 4 4 5 3 3 4 4 5 5 4 4 4 4 5 5 10 12 12 12 11 12 12 13 14 14 15 16 16 17 17 17 18 19 20 20 20 21 21 22 22 23 23 25 26 26 26 27 26
12 12 12 12 11 9 10 10 9 9 9 8 9 9 7 8 7 7 5 5 5 8 7 5 5 5 4 4 4 3 4 5 5 6 4 3 3 4 5 5 4 7 10 10 10 11 11 12 13 13 14 14 15 17 17 18 18 18 19 19 20 20 21 22 22 23 23 25 26 26 27 27 27 28
14 15 13 12 13 12 12 11 10 10 9 9 9 9 8 8 8 7 6 5 4 5 6 5 4 3 2 3 3 3 4 5 5 5 5 4 4 4 4 5 6 7 11 11 12 12 13 13 13 13 14 15 17 18 18 19 19 19 19 20 21 21 21 21 21 22 23 24 25 26 26 27 28 28
15 15 15 13 14 14 13 11 11 10 13 10 9 9 8 8 7 6 6 6 4 5 5 4 3 2 3 3 4 4 4 4 4 4 4 5 5 6 6 5 5 8 12 12 12 12 12 12 12 13 14 17 18 18 19 19 18 18 19 20 21 21 22 21 21 22 22 23 24 24 26 27 27 27
14 14 13 13 15 15 16 14 12 12 14 11 10 10 9 8 8 8 7 6 6 4 4 4 3 3 2 2 3 3 4 4 4 4 4 5 5 7 8 7 5 4 5 5 6 8 9 9 12 13 15 18 19 19 19 18 18 18 18 19 20 21 21 21 21 22 23 24 24 26 26 27 28 28
12 11 12 12 14 15 14 14 15 14 13 11 13 11 11 9 10 9 8 8 7 6 5 3 3 3 3 3 3 2 3 4 4 5 6 7 5 5 6 8 7 5 6 9 11 10 9 11 11 14 18 18 19 19 18 18 18 17 19 20 20 20 21 22 23 23 24 25 25 26 27 26 28 29
13 13 12 11 14 15 14 13 13 14 14 11 12 10 10 11 11 9 8 8 7 6 5 4 4 3 3 3 3 3 2 3 4 4 4 6 6 5 4 6 8 7 6 6 5 6 8 10 11 13 14 15 15 17 16 16 17 18 18 19 20 21 22 23 24 24 25 25 26 26 27 27 28 29
11 12 12 11 13 14 14 15 16 17 16 13 12 10 11 11 10 9 8 8 7 6 5 5 4 4 4 5 4 5 5 6 5 3 5 6 6 5 6 8 8 7 6 5 4 7 7 8 8 7 7 7 9 10 13 13 15 15 16 19 20 22 22 23 24 25 26 26 27 27 27 28 28 30
11 12 11 9 16 18 18 19 21 22 22 19 14 15 14 12 11 10 10 9 9 9 8 8 7 6 6 7 7 7 7 6 5 6 6 7 6 6 7 8 7 5 4 4 7 8 7 7 7 6 7 6 6 6 7 7 11 15 19 20 20 21 22 23 24 25 26 27 27 27 27 28 29 30
12 10 10 9 14 17 17 16 22 23 24 22 20 21 21 19 17 14 10 10 11 10 9 8 8 8 8 8 8 8 7 7 7 6 7 7 7 7 6 5 4 6 3 5 7 8 6 6 6 6 7 6 5 5 7 13 16 18 19 20 21 22 23 24 25 25 25 26 27 27 27 28 29 30
9 10 10 8 9 11 13 13 16 19 22 22 21 23 22 22 21 21 18 15 11 10 10 10 10 9 9 8 9 9 8 7 7 8 8 9 8 7 7 7 7 3 2 6 8 8 5 5 6 6 7 5 5 6 10 15 16 17 17 20 23 23 24 24 25 25 26 26 26 26 27 28 29 30
11 10 9 9 8 8 18 13 13 14 16 20 23 22 23 22 22 19 19 18 14 12 10 10 10 11 9 10 10 10 9 7 8 8 9 9 8 7 8 8 7 7 4 6 7 7 5 4 5 6 7 6 5 6 10 13 15 17 19 21 22 23 23 23 23 24 24 25 26 28 30 31 30 30
12 13 12 12 11 11 14 12 14 13 14 15 15 16 14 14 17 20 20 19 16 14 10 10 10 10 10 9 10 10 9 10 9 9 9 8 7 8 10 8 7 7 5 5 6 6 4 2 6 7 6 4 6 6 10 14 16 18 19 20 20 20 21 22 23 24 25 26 28 28 30 31 31 31
13 12 11 12 12 13 13 12 16 14 14 15 14 14 14 12 14 14 15 14 13 12 10 10 9 9 10 11 8 8 9 10 8 8 7 6 6 6 6 6 6 6 5 5 3 4 2 5 6 7 7 6 7 7 10 14 16 17 16 17 18 19 20 22 24 26 27 28 28 30 30 31 31 32
9 10 12 13 11 12 11 21 28 19 12 15 15 15 13 10 10 11 13 16 14 11 11 11 11 11 10 10 10 9 9 8 7 5 4 3 2 2 2 4 3 3 3 3 4 4 4 5 7 9 7 8 8 7 8 10 13 14 15 16 17 20 23 24 24 25 26 28 29 29 31 31 32 32
10 10 13 13 12 12 13 23 28 27 22 15 17 15 15 13 12 12 12 18 20 19 17 14 16 15 15 16 16 16 16 9 6 3 2 4 3 2 2 3 2 2 4 4 3 4 5 4 7 11 6 7 10 8 5 5 7 10 16 21 22 22 22 22 24 25 26 28 28 30 31 32 31 36
7 10 22 17 13 13 14 25 30 30 22 15 16 16 15 14 13 13 8 9 13 19 18 18 18 16 15 16 17 15 11 11 6 3 6 3 4 3 3 3 2 4 4 2 2 2 5 7 7 10 10 8 5 4 4 3 4 10 15 18 20 21 22 23 23 24 26 29 29 29 30 31 31 24
7 10 17 24 18 14 18 29 29 31 23 15 15 16 14 12 13 13 12 11 12 13 12 12 13 13 12 6 5 5 5 3 3 4 5 5 5 4 3 2 1 1 1 3 5 4 5 6 6 7 11 5 2 4 1 3 8 10 10 10 12 18 20 23 25 26 26 26 27 28 29 31 28 18
7 8 10 19 25 26 26 28 30 29 29 16 14 12 13 14 12 10 11 11 8 10 12 8 6 6 6 6 4 3 2 1 3 5 6 6 6 5 4 3 3 2 2 2 6 4 5 3 5 4 3 7 8 2 8 11 11 8 9 12 12 13 18 20 18 23 24 24 26 27 28 29 29 19
9 9 10 9 22 26 26 26 28 29 27 19 12 13 13 14 13 15 11 15 18 9 8 7 6 6 5 3 2 2 2 2 4 6 6 6 6 5 5 4 4 5 5 5 4 3 4 4 7 5 4 5 10 12 11 11 11 12 11 10 14 12 11 13 14 15 17 24 25 26 26 29 30 23
7 8 10 9 20 29 28 27 28 30 28 26 13 12 13 15 19 14 9 10 10 9 8 7 5 5 4 3 2 2 3 4 5 6 5 5 5 4 4 5 4 4 4 3 4 5 6 6 3 7 6 7 11 10 16 15 10 10 13 12 10 13 12 14 16 16 14 13 14 15 19 31 32 31
10 9 10 12 25 28 28 28 30 29 30 25 14 21 21 20 21 16 9 9 10 10 9 9 8 7 4 4 4 4 4 5 6 6 5 5 4 3 3 4 4 5 5 4 5 6 6 7 4 6 9 8 12 15 13 13 13 13 14 13 10 12 13 13 16 16 14 15 15 24 26 27 30 31
10 10 10 14 25 27 28 30 30 29 27 18 23 24 24 23 21 11 10 9 9 9 9 10 9 8 5 4 3 4 5 5 6 5 4 3 3 3 2 3 3 4 6 6 6 6 6 8 8 6 7 9 11 12 15 15 13 13 16 17 15 12 13 14 13 14 14 15 15 16 15 15 15 18
10 14 23 26 27 27 28 30 30 26 27 26 25 27 26 23 11 12 11 11 11 11 12 11 8 7 5 5 4 5 6 6 5 4 2 1 1 2 2 4 4 5 4 5 6 7 6 7 8 8 7 8 10 13 12 16 17 17 15 17 18 14 12 14 17 16 15 14 14 16 19 20 17 15
19 24 26 27 26 26 24 19 16 14 16 24 26 27 24 12 10 10 11 10 11 11 10 9 9 5 4 4 5 5 5 4 3 3 2 2 2 2 2 2 3 4 5 5 6 7 7 7 8 8 9 10 10 12 13 15 18 17 15 15 16 19 17 12 15 15 15 16 15 16 17 18 20 17
14 18 19 16 20 17 24 23 17 13 15 18 18 16 11 9 10 10 10 12 12 10 9 8 4 4 4 4 5 5 5 4 3 3 2 1 2 1 2 3 4 2 2 4 5 6 6 7 9 10 10 11 11 11 12 13 17 20 18 14 13 15 15 16 17 17 16 19 20 20 20 18 15 15
12 12 16 19 15 13 14 15 11 10 8 7 8 9 10 10 10 11 13 10 7 5 4 4 5 5 6 6 6 4 4 3 3 2 2 2 1 1 2 3 4 3 4 2 3 6 7 9 10 10 11 11 13 13 12 13 17 18 18 17 15 16 15 15 17 16 16 19 20 21 19 17 17 18
10 10 11 11 12 12 11 8 9 9 9 9 9 10 9 10 9 8 9 9 8 7 7 7 6 7 5 4 4 5 4 3 3 2 2 3 2 2 1 3 5 5 6 5 4 4 5 8 10 12 11 12 15 15 16 18 17 15 15 16 16 17 15 13 14 17 18 18 20 18 20 21 20 18
12 13 12 13 13 11 10 11 11 11 11 10 8 8 9 9 9 8 7 7 9 7 7 6 6 5 5 4 5 5 4 2 3 3 3 2 1 1 3 4 5 4 5 5 5 6 5 6 7 8 9 10 11 12 11 14 19 15 11 12 13 15 17 14 15 15 17 18 18 21 24 25 19 13
13 13 13 13 12 11 11 12 13 12 13 10 10 9 9 8 8 9 8 8 7 6 7 6 5 4 5 5 5 5 4 3 2 2 2 2 2 2 3 4 5 4 5 6 6 5 6 6 8 12 12 9 9 9 15 16 13 16 13 14 12 13 14 13 15 16 20 18 19 22 20 21 25 18
12 13 13 12 12 12 13 13 12 12 12 12 12 11 10 9 9 10 10 9 8 7 6 6 7 7 6 6 6 5 4 4 2 1 1 1 2 3 3 4 5 5 5 6 6 6 5 5 7 10 14 15 14 15 5 18 19 12 13 16 14 13 12 14 16 16 15 19 18 15 21 26 21 20
15 12 12 13 13 13 14 13 13 13 13 13 12 11 12 13 10 7 8 11 8 8 7 7 7 7 7 7 6 5 4 4 2 2 2 2 2 3 3 4 5 5 6 6 6 6 5 6 7 8 11 12 15 16 17 5 11 14 12 14 18 18 15 15 18 21 21 15 17 20 17 20 28 28
15 14 12 12 12 12 11 12 12 13 13 12 12 10 10 8 7 8 9 8 8 8 8 8 8 7 7 7 6 5 5 4 3 3 3 2 3 3 4 5 5 6 7 7 6 5 5 6 7 7 7 11 14 16 19 13 5 8 12 12 15 19 19 18 19 22 20 18 19 17 20 26 25 24
13 14 14 13 12 12 12 12 12 12 11 11 13 13 11 9 8 9 10 8 8 9 9 8 8 8 8 7 6 6 5 5 4 4 3 3 4 4 4 5 6 6 7 7 6 5 5 6 6 6 8 10 13 16 16 20 24 15 11 17 16 17 19 18 21 19 21 23 17 22 21 23 26 37
13 13 13 14 13 12 11 10 10 10 10 11 12 11 8 9 8 8 8 9 10 9 8 9 8 8 7 7 7 6 5 5 5 4 4 4 4 4 5 5 6 7 7 8 8 7 7 7 6 7 7 10 13 15 17 19 22 20 18 18 21 18 15 16 17 20 24 20 21 23 28 23 19 22
11 13 12 12 12 12 11 10 10 10 11 12 11 9 8 8 8 7 6 7 6 8 8 7 8 8 8 8 8 6 5 5 4 4 4 4 4 5 6 7 7 7 9 10 9 9 6 6 7 15 15 12 13 12 14 16 17 15 14 13 14 20 23 21 20 20 18 23 23 23 20 22 26 25
12 11 11 11 11 10 10 11 10 12 13 11 9 9 8 7 8 12 10 10 8 8 7 7 8 7 6 5 5 5 5 5 5 4 4 3 4 5 7 6 7 7 9 11 11 11 9 6 7 8 8 9 9 11 16 15 18 18 16 16 16 18 21 24 26 26 23 20 19 19 23 27 21 21
11 10 10 9 9 10 10 11 12 14 14 12 10 8 8 8 9 9 8 8 8 8 8 7 5 4 4 4 5 6 5 4 4 4 4 4 4 5 5 6 7 8 9 11 12 9 8 7 5 6 7 7 9 10 15 16 17 17 19 18 18 17 18 20 22 27 29 31 28 25 22 18 18 26
10 10 9 10 10 11 12 13 13 13 16 15 14 10 9 9 9 8 8 9 9 8 7 5 5 5 5 6 6 4 4 4 4 4 4 4 5 5 5 7 8 8 9 11 12 10 7 7 6 7 8 8 8 10 13 15 18 17 16 18 17 17 21 19 16 17 21 26 27 29 32 34 34 37
10 11 11 10 10 12 14 15 17 17 16 14 10 9 8 7 9 9 9 8 7 5 4 4 5 4 5 6 5 4 4 5 4 4 5 5 5 6 6 7 8 8 9 9 11 12 8 7 7 6 8 9 8 10 13 14 17 17 20 20 19 18 17 17 19 20 16 14 15 23 30 34 36 37
Wind_Direction
171 174 175 179 164 171 165 163 166 161 158 168 171 178 175 174 178 174 200 209 200 187 197 194 191 184 173 170 164 177 220 345 336 340 331 315 310 309 316 325 327 326 329 334 339 344 345 344 342 337 334 332 329 328 328 328 326 325 326 325 324 323 322 320 319 318 316 314 311 308 305 303 300 299
170 168 169 174 172 166 171 170 162 167 166 164 174 179 162 169 195 184 190 191 185 161 181 221 168 177 194 182 207 216 300 329 309 334 318 306 303 304 315 318 317 323 331 335 338 342 341 338 335 333 331 329 329 328 327 327 327 327 327 326 327 329 328 326 323 320 317 315 312 310 308 305 302 300
167 171 174 175 171 166 170 160 166 169 170 172 167 168 154 180 204 174 202 159 178 168 180 194 199 178 179 181 228 266 270 261 296 317 303 289 286 291 295 294 307 318 323 326 331 337 336 337 336 333 331 329 329 327 327 326 325 326 327 327 329 329 328 327 326 324 323 320 317 314 310 307 304 301
177 170 175 177 172 169 165 170 173 174 177 167 171 170 173 170 170 172 188 200 150 180 174 161 156 154 172 191 222 219 215 220 251 276 268 264 265 267 262 256 277 299 311 321 330 337 340 339 336 332 330 326 326 326 326 325 325 326 328 327 327 327 327 326 324 323 321 320 318 315 313 309 305 302
178 180 175 175 176 166 171 175 172 175 173 171 174 170 171 174 175 178 180 180 133 121 128 146 172 182 197 227 194 219 235 236 233 233 244 248 252 259 263 268 275 305 319 328 333 335 337 336 332 330 327 324 324 326 325 324 322 322 324 326 328 328 327 324 321 319 317 315 313 312 312 310 307 303
183 177 176 178 173 177 176 171 178 174 172 177 172 181 177 179 175 182 174 187 156 157 160 176 196 210 201 221 193 220 264 258 247 245 248 246 263 284 298 309 316 313 321 327 331 332 331 330 329 328 328 326 322 317 315 315 316 320 324 326 327 325 323 321 319 316 314 313 312 310 309 309 307 303
175 177 184 180 168 168 177 181 181 175 178 175 180 176 176 176 177 176 188 162 180 164 169 168 185 200 199 211 194 259 267 269 268 277 280 294 296 290 296 296 289 290 310 318 323 324 326 328 327 326 322 317 311 308 311 317 321 324 326 326 325 323 321 318 317 316 314 313 312 310 308 307 306 304
180 183 176 179 171 172 175 177 177 181 176 177 179 174 177 175 174 177 174 198 173 169 165 184 187 179 201 232 244 256 265 272 283 284 290 275 273 279 275 279 288 293 310 320 325 327 327 324 320 317 314 311 306 309 317 324 326 327 327 327 325 322 319 317 316 315 314 313 311 310 309 307 305 302
181 180 186 168 169 172 175 174 181 175 176 178 176 177 174 175 167 159 176 177 179 177 185 167 182 195 243 252 269 270 280 274 267 268 282 299 306 304 293 282 272 293 313 318 315 310 307 305 304 306 309 306 307 314 320 323 325 326 326 324 320 318 317 316 316 315 314 313 311 309 309 308 305 302
186 183 179 171 173 174 177 179 173 170 175 169 175 173 171 166 157 163 166 169 176 187 193 175 185 202 229 267 254 264 270 282 297 312 317 311 309 313 315 312 311 313 309 313 305 288 284 286 297 304 307 307 311 316 319 321 322 324 322 318 315 315 314 314 313 313 313 313 310 308 307 305 304 301
186 185 182 177 178 181 181 172 173 169 168 172 176 174 166 161 161 162 165 168 171 180 180 194 199 209 232 233 267 272 255 273 297 316 324 321 321 313 305 307 312 308 294 281 274 276 288 299 300 304 306 306 310 313 316 318 319 319 317 313 312 312 312 312 312 313 312 311 310 308 307 305 303 302
188 188 184 179 183 184 182 175 171 166 169 165 168 169 161 164 163 161 158 160 168 171 180 190 195 202 202 218 226 263 263 263 266 248 265 285 300 296 272 264 280 281 259 254 245 254 278 286 290 292 291 294 299 304 307 308 309 309 309 310 310 311 311 311 311 311 311 309 308 307 306 304 303 301
185 187 187 183 184 186 188 180 175 178 169 159 161 167 164 164 162 157 156 159 158 165 169 184 192 198 203 207 200 206 211 213 219 229 223 247 257 264 272 267 254 251 250 235 242 274 276 287 285 285 285 284 290 293 294 297 298 298 302 306 307 308 309 309 308 307 308 307 306 304 303 302 301 300
192 189 186 180 177 182 182 176 175 176 179 182 173 161 166 164 160 161 155 160 164 164 173 186 182 189 205 198 199 201 204 200 211 226 228 234 244 243 254 258 245 225 216 253 272 269 270 273 275 266 268 273 278 284 289 287 295 298 301 301 301 303 305 306 306 305 305 306 305 303 301 299 298 298
189 185 183 171 176 178 178 176 176 178 179 177 178 176 172 170 162 156 159 165 164 167 175 176 182 192 195 200 195 202 196 200 211 217 219 228 233 233 234 248 245 223 199 275 275 272 263 259 264 263 264 268 271 275 279 285 289 294 298 299 300 303 304 305 305 304 303 302 302 300 298 298 297 297
186 184 178 172 171 177 175 167 173 178 177 175 174 176 179 179 178 173 163 160 167 175 169 179 189 182 195 190 192 197 195 201 206 212 219 224 226 225 233 248 251 208 71 293 280 276 267 249 256 261 260 263 266 263 272 281 288 292 294 297 299 303 305 305 304 304 303 302 301 300 299 298 298 296
184 177 175 171 176 174 172 165 170 167 173 176 175 175 178 181 182 186 184 174 166 167 173 174 180 187 181 187 198 193 194 195 203 212 218 221 219 226 243 250 257 265 292 282 273 277 277 251 255 271 271 261 263 268 266 275 287 292 294 294 296 301 305 306 304 303 302 302 301 300 298 296 295 295
182 180 176 173 173 171 174 172 168 165 167 169 170 174 177 181 187 189 187 183 176 172 174 171 180 183 184 193 190 191 192 203 207 212 220 214 215 230 243 264 272 277 274 266 289 283 258 254 294 282 279 272 274 267 267 280 293 294 293 295 300 305 308 308 307 306 304 302 300 298 297 297 294 294
187 179 176 174 171 168 173 171 169 164 166 167 170 172 175 177 184 187 188 185 182 181 181 184 183 185 190 190 190 194 204 207 220 217 204 206 225 243 270 270 257 272 258 252 271 269 279 301 288 284 293 295 283 280 280 281 291 296 296 299 303 309 311 310 307 305 304 301 300 300 299 297 295 295
180 174 175 178 170 169 166 177 178 173 156 167 169 172 173 170 180 191 194 188 184 180 182 188 189 184 182 187 199 203 202 205 178 154 148 153 163 191 261 272 281 270 270 266 274 273 282 296 299 295 296 291 285 283 279 280 288 299 306 310 312 311 307 306 306 304 301 302 301 300 300 299 297 297
178 170 176 176 170 169 172 178 178 176 169 169 171 171 173 175 180 190 191 196 195 192 194 188 185 187 194 200 205 205 210 194 157 135 206 227 173 201 235 265 242 270 312 287 268 274 291 317 323 303 290 290 289 286 270 282 292 302 313 313 309 306 303 303 302 300 301 300 301 301 299 298 299 300
172 174 182 179 170 171 172 178 184 182 174 172 173 170 169 172 183 189 176 177 192 195 199 202 202 198 201 209 212 213 207 201 186 158 220 199 170 209 206 224 257 300 298 300 24 342 300 327 322 308 300 284 239 242 278 274 296 308 304 304 302 301 301 299 297 296 299 301 299 298 299 299 300 300
168 178 187 185 182 173 172 180 184 185 182 176 174 172 170 174 182 187 170 176 180 188 191 196 195 205 202 180 144 152 165 170 210 219 223 202 197 210 197 193 231 296 220 153 32 353 312 335 316 350 333 323 231 208 215 320 312 306 307 304 299 294 295 294 295 294 293 293 297 300 298 299 300 296
180 176 179 189 187 183 181 184 187 189 185 177 176 171 177 176 184 169 172 178 169 182 186 178 148 135 125 156 155 163 161 212 224 231 221 206 194 193 188 182 195 199 243 178 11 333 300 282 300 351 336 307 313 312 322 311 307 297 295 304 298 295 296 295 295 291 289 289 291 297 298 295 295 294
179 175 181 173 188 183 182 186 190 191 185 178 175 181 181 188 174 163 169 179 179 181 178 169 151 146 144 143 159 187 192 218 223 223 216 202 196 186 183 183 204 225 246 267 310 310 292 305 300 314 293 285 278 303 302 308 304 307 304 295 300 302 299 297 297 291 288 289 287 287 290 297 288 286
181 173 173 168 184 187 186 189 192 193 189 183 179 190 179 164 167 168 156 166 169 174 180 175 157 150 150 164 169 205 216 217 221 219 221 210 202 207 192 192 204 234 254 242 297 298 292 290 289 309 302 303 292 292 303 305 302 296 303 296 285 288 294 301 296 291 288 284 286 280 285 299 293 281
179 168 175 172 182 184 184 188 193 192 190 182 181 179 178 175 169 159 157 159 166 169 169 177 184 186 177 189 195 203 217 222 216 218 213 205 199 203 209 232 242 245 267 281 284 286 282 279 286 288 293 295 294 301 294 298 307 313 300 293 294 295 292 290 287 285 287 288 289 287 285 291 295 284
173 172 164 174 183 185 188 190 192 193 187 179 179 179 179 176 171 149 151 154 161 163 166 185 192 194 187 176 192 203 212 218 211 207 205 204 208 217 234 239 252 260 276 279 278 272 272 276 279 266 269 284 289 292 298 294 290 297 302 300 298 293 294 291 282 282 283 283 286 290 288 285 293 286
182 179 179 184 187 189 190 192 193 194 188 178 176 181 179 177 157 155 162 164 162 174 183 192 193 192 186 186 191 201 204 205 205 197 218 220 272 295 271 261 257 262 254 254 260 260 261 261 273 271 265 258 267 275 282 288 297 297 298 302 303 304 297 289 286 283 278 277 279 289 291 292 288 289
180 183 187 187 189 192 192 190 193 193 188 180 179 182 182 168 149 153 159 157 170 183 184 186 194 181 156 173 186 198 207 207 213 201 215 224 253 203 242 272 257 215 222 239 252 258 259 262 264 268 267 260 255 268 278 289 292 291 289 282 284 292 283 278 284 290 288 285 280 278 280 286 286 283
174 182 185 187 191 190 191 189 188 183 186 187 178 179 167 135 150 153 160 170 176 174 176 183 166 144 154 160 179 200 206 210 213 203 207 236 265 258 281 304 294 307 231 206 243 259 269 269 268 273 275 276 271 263 276 281 285 289 286 281 281 280 288 292 285 285 292 296 297 294 295 288 286 274
166 168 180 185 190 190 191 188 179 174 166 161 133 131 135 143 148 154 149 134 151 137 127 119 126 132 163 181 190 198 208 212 205 203 202 218 258 272 315 328 308 309 315 286 250 251 257 262 267 271 273 277 282 287 286 279 274 275 281 284 278 272 273 278 284 285 290 296 294 296 287 284 283 287
158 164 172 178 182 186 183 155 142 129 123 126 131 125 130 138 143 141 148 160 158 146 143 155 155 168 159 176 185 195 203 213 208 206 198 247 224 288 284 269 289 304 310 313 306 273 245 251 253 260 269 275 279 281 288 288 276 266 264 270 277 279 279 274 276 287 298 296 291 290 291 288 287 286
163 174 173 179 182 176 162 160 155 151 141 136 136 146 135 138 142 143 138 137 136 123 132 153 156 162 166 177 182 194 199 214 202 222 201 221 225 241 277 279 283 287 286 287 291 285 271 257 261 254 255 255 256 253 247 262 273 274 263 259 262 272 279 286 285 286 293 294 292 293 293 292 283 276
171 174 177 179 178 171 165 164 164 154 154 151 147 151 154 148 146 147 148 146 134 138 154 160 157 157 171 178 182 185 200 193 209 192 226 211 254 247 256 275 288 286 287 288 286 283 282 289 298 305 297 280 275 253 215 225 252 268 280 270 266 267 278 284 291 294 296 291 293 289 285 284 289 282
180 182 177 175 174 170 169 169 160 162 160 159 157 155 156 161 160 157 158 152 144 149 148 154 171 178 181 184 183 186 188 189 200 210 253 264 253 267 256 254 265 269 272 274 280 279 282 293 310 315 313 312 313 306 285 198 213 249 272 290 289 282 283 288 288 285 285 289 283 284 286 285 286 290
175 178 180 175 174 174 175 170 167 167 165 163 163 166 165 169 168 149 144 144 143 153 157 159 173 176 179 182 180 181 179 174 181 199 235 271 268 261 266 265 263 265 271 266 273 277 287 298 306 309 305 304 305 297 287 175 199 241 272 285 292 292 296 299 301 298 295 289 286 286 284 287 288 290
176 172 173 174 173 176 174 173 169 170 170 168 165 162 163 146 123 136 140 138 149 155 166 170 174 174 177 177 173 176 172 185 176 199 224 239 247 263 270 274 279 276 275 270 271 277 286 296 300 297 291 291 296 295 301 298 251 229 233 267 279 288 296 296 294 295 293 296 290 288 290 287 288 290
174 170 169 166 171 173 175 177 175 174 167 166 168 168 158 142 141 148 150 153 155 163 167 166 173 173 176 178 179 173 169 169 180 202 222 240 245 254 263 272 276 274 277 282 283 279 286 285 285 278 277 278 278 284 290 296 294 288 260 256 266 274 278 286 289 290 294 296 296 295 285 280 281 283
173 166 167 168 172 173 173 167 173 173 166 170 169 161 138 142 141 140 145 159 162 168 166 172 170 171 176 180 177 172 169 178 193 208 210 228 244 249 259 263 269 278 284 283 284 282 286 284 277 273 273 274 276 280 284 282 282 281 277 267 254 258 271 283 284 291 293 294 300 301 298 299 299 293
161 169 171 168 166 168 165 163 165 163 166 160 151 144 131 128 134 140 142 145 144 161 168 170 177 180 178 175 171 167 170 183 189 205 213 224 240 248 259 269 277 283 286 286 282 281 268 268 265 280 283 283 281 282 282 281 277 279 283 276 273 271 273 276 278 281 283 293 297 297 292 295 302 302
168 169 164 160 162 156 155 158 159 157 138 139 133 132 129 124 132 150 152 157 157 162 161 173 179 175 170 153 163 171 176 184 190 200 215 218 240 253 260 262 272 281 286 286 285 287 287 279 271 273 271 273 273 286 282 280 286 289 288 293 291 284 280 280 277 274 277 285 293 295 296 298 299 292
163 160 155 147 140 146 151 149 154 152 139 141 132 131 127 132 151 154 159 160 165 172 172 173 166 159 163 160 174 180 179 191 199 209 220 231 235 247 256 267 273 278 277 278 282 280 284 282 266 272 265 257 261 259 275 280 283 285 293 298 298 301 295 284 278 281 279 280 282 278 280 285 298 296
155 145 139 144 145 151 149 144 145 150 136 136 131 131 137 146 157 158 159 163 167 171 170 164 168 166 169 176 175 180 198 200 205 216 224 233 240 245 258 270 272 271 273 280 287 285 284 281 275 281 283 272 261 266 270 279 287 288 289 291 294 296 295 301 293 275 271 265 271 281 282 280 279 279
144 142 143 144 147 144 123 121 129 132 130 132 132 133 140 141 152 159 161 163 166 154 154 162 167 169 171 172 174 182 201 209 215 222 234 241 253 260 263 263 268 269 273 281 289 292 288 281 276 268 267 260 257 265 274 276 282 291 296 296 294 291 294 300 302 303 296 291 272 279 290 291 290 289